Location: Whitehorse
(60.7170°N, 135.0500°W)
Time: 15:29:02
(UTC-08:00)

Envisat - Pass Details

Date: 22 October 2019
Orbit: 764 x 766 km, 98.1° (Epoch: 14 November)

Event Time Altitude Azimuth Distance (km) Brightness Sun altitude
Rises 21:00:19 0° 201° (SSW) 3,227 6.4 -19.0°
Reaches altitude 10° 21:02:58 10° 214° (SW) 2,305 5.7 -19.4°
Maximum altitude 21:07:13 26° 270° (W) 1,477 5.2 -19.9°
Drops below altitude 10° 21:11:29 10° 327° (NNW) 2,317 6.1 -20.4°
Sets 21:14:10 0° 340° (NNW) 3,248 6.7 -20.7°
